Regional Weather Roundup
Issued by NWS Cleveland, OH

Home | Current Version | Previous Version | Graphics & Text | Print | Product List | Glossary On
Versions: 1 2 3 4 5 6 7 8 9 10 11 12 13 14 15 16 17 18 19 20 21 22 23 24 25 26 27 28 29 30 31 32 33 34 35 36 37 38 39 40 41 42 43 44 45 46 47 48 49 50
000
ASUS41 KCLE 051210
RWRCLE
OHIO REGIONAL WEATHER ROUNDUP
NATIONAL WEATHER SERVICE CLEVELAND, OH
800 AM EDT SUN JUL 05 2015

NOTE: "FAIR" INDICATES FEW OR NO CLOUDS BELOW 12,000 FEET WITH NO
SIGNIFICANT WEATHER AND/OR OBSTRUCTIONS TO VISIBILITY.

OHZ001>008-015>018-024>027-034-035-043-044-051300-
   NORTHWEST OHIO

CITY           SKY/WX    TMP DP  RH WIND       PRES   REMARKS
DEFIANCE       MOSUNNY   63  59  87 CALM      30.12S FOG
FINDLAY        MOSUNNY   64  59  83 CALM      30.12R
TOLEDO EXPRESS SUNNY     60  57  89 CALM      30.12S
TOLEDO EXEC    MOSUNNY   62  57  83 CALM      30.13S
LIMA           PTSUNNY   63  60  90 S5        30.13R FOG
$$

OHZ009>014-019>023-028>033-038-089-051300-
   NORTHEAST OHIO

CITY           SKY/WX    TMP DP  RH WIND       PRES   REMARKS
CLE-HOPKINS    PTSUNNY   61  54  77 CALM      30.16R
CLE-LAKEFRONT  SUNNY     64  53  67 S8        30.13R
CUY CO. ARPT   MOSUNNY   64  54  68 SE9       30.15R
LORAIN-ELYRIA  MOSUNNY   60  56  86 S3        30.15R FOG
ASHTABULA      SUNNY     60  57  89 CALM      30.16R FOG
AKRON-CANTON   PTSUNNY   63  52  67 CALM      30.15R
WOOSTER        PTSUNNY   59  57  93 CALM      30.16R FOG
MANSFIELD      PTSUNNY   61  58  90 CALM      30.15S
YOUNGSTOWN     MOSUNNY   60  55  83 E6        30.16R FOG
$$

OHZ042-051>053-060>062-070>072-077>081-051300-
  SOUTHWEST OHIO

CITY           SKY/WX    TMP DP  RH WIND       PRES   REMARKS
CINC-COVINGTON CLOUDY    69  59  70 NE5       30.11R
CINC-LUNKEN    CLOUDY    63  62  97 CALM      30.11R FOG
HAMILTON       PTSUNNY   65  63  93 CALM      30.13R FOG
DAYTON         PTSUNNY   65  61  87 CALM      30.15R FOG
WRIGHT-PAT AFB PTSUNNY   63  60  88 N2        30.13S
DAYTON GENERAL PTSUNNY   64  60  87 NE8       30.12R
WILMINGTON     PTSUNNY   63  58  83 CALM      30.13R
$$

OHZ036-037-039>041-045>050-054>059-063>069-073>076-082>088-051300-
  CENTRAL AND SOUTHEAST OHIO

CITY           SKY/WX    TMP DP  RH WIND       PRES   REMARKS
COLUMBUS       PTSUNNY   64  56  75 N3        30.13R
OSU AIRPORT    PTSUNNY   62  59  90 CALM      30.14R FOG
BOLTON FIELD   SUNNY     61  59  94 NE3       30.14S
RICKENBACK AFB PTSUNNY   61  58  90 CALM      30.13R
NEWARK         PTSUNNY   61  58  90 CALM      30.14R
MARION         PTSUNNY   61  58  90 CALM      30.15R FOG
LANCASTER      CLOUDY    62  59  90 N3        30.14R FOG
ZANESVILLE     NOT AVBL
NEW PHILLY     PTSUNNY   58  56  93 CALM      30.16R FOG
$$


USA.gov is the U.S. government's official web portal to all federal, state and local government web resources and services.